Location: Ceske Budejovice
(48.9830°N, 14.4670°E)
Time: 08:58:36
(UTC+02:00)

ISS - Pass Details

Date: 28 April 2024
Orbit: 409 x 414 km, 51.6° (Epoch: 21 May)

Event Time Altitude Azimuth Distance (km) Brightness Sun altitude
Exits shadow 03:51:43 41° 202° (SSW) 604 -3.4 -16.2°
Maximum altitude 03:52:30 54° 153° (SSE) 503 -3.6 -16.1°
Drops below altitude 10° 03:55:45 10° 74° (ENE) 1,478 0.0 -15.7°
Sets 03:57:52 0° 70° (ENE) 2,342 1.3 -15.5°
